Location: Udine
(46.0620°N, 13.2420°E)
Time: 02:56:34
(UTC+02:00)

ISS - Pass Details

Date: 16 May 2021
Orbit: 417 x 422 km, 51.6° (Epoch: 14 June)

Event Time Altitude Azimuth Distance (km) Brightness Sun altitude
Rises 22:50:30 0° 255° (WSW) 2,359 0.3 -18.0°
Reaches altitude 10° 22:52:37 10° 261° (W) 1,498 -0.7 -18.2°
Maximum altitude 22:55:55 53° 339° (NNW) 523 -3.0 -18.5°
Drops below altitude 10° 22:59:14 10° 58° (ENE) 1,506 -0.9 -18.8°
Sets 23:01:23 0° 63° (ENE) 2,373 0.0 -19.0°
